Time,TemperatureF,DewpointF,PressureIn,WindDirection,WindDirectionDegrees,WindSpeedMPH,WindSpeedGustMPH,Humidity,HourlyPrecipIn,Conditions,Clouds,dailyrainin,SoftwareType,DateUTC
2013-04-23 00:01:00,45.1,21.6,29.50,ESE,108,0.0,4.0,39,0.00,,,0.00,Weather View 32 v70,2013-04-23 04:01:00,
2013-04-23 00:06:00,45.3,21.8,29.50,ESE,108,0.0,4.0,39,0.00,,,0.00,Weather View 32 v70,2013-04-23 04:06:00,
2013-04-23 00:11:00,45.3,21.8,29.50,ESE,108,0.0,4.0,39,0.00,,,0.00,Weather View 32 v70,2013-04-23 04:11:00,
2013-04-23 00:16:00,45.1,22.2,29.50,ESE,108,0.0,4.0,40,0.00,,,0.00,Weather View 32 v70,2013-04-23 04:16:00,
2013-04-23 00:21:00,45.0,22.1,29.50,ESE,109,0.0,4.0,40,0.00,,,0.00,Weather View 32 v70,2013-04-23 04:21:00,
2013-04-23 00:26:00,44.8,22.5,29.50,ESE,109,0.0,4.0,41,0.00,,,0.00,Weather View 32 v70,2013-04-23 04:26:00,
2013-04-23 00:31:00,44.6,22.9,29.50,ESE,109,0.0,4.0,42,0.00,,,0.00,Weather View 32 v70,2013-04-23 04:31:00,
2013-04-23 00:36:00,44.6,22.9,29.50,ESE,109,0.0,4.0,42,0.00,,,0.00,Weather View 32 v70,2013-04-23 04:36:00,
2013-04-23 00:41:00,44.4,23.3,29.50,ESE,109,0.0,4.0,43,0.00,,,0.00,Weather View 32 v70,2013-04-23 04:41:00,
2013-04-23 00:46:00,44.2,23.7,29.50,ESE,109,0.0,4.0,44,0.00,,,0.00,Weather View 32 v70,2013-04-23 04:46:00,
2013-04-23 00:51:00,43.9,23.9,29.50,ESE,109,0.0,4.0,45,0.00,,,0.00,Weather View 32 v70,2013-04-23 04:51:00,
2013-04-23 00:56:00,43.5,23.6,29.50,ESE,109,0.0,4.0,45,0.00,,,0.00,Weather View 32 v70,2013-04-23 04:56:00,
2013-04-23 01:01:00,43.5,23.6,29.50,ESE,109,0.0,3.0,45,0.00,,,0.00,Weather View 32 v70,2013-04-23 05:01:00,
2013-04-23 01:06:00,43.3,23.4,29.50,ESE,109,0.0,3.0,45,0.00,,,0.00,Weather View 32 v70,2013-04-23 05:06:00,
2013-04-23 01:11:00,43.5,24.6,29.50,ESE,109,0.0,0.0,47,0.00,,,0.00,Weather View 32 v70,2013-04-23 05:11:00,
2013-04-23 01:16:00,43.5,24.1,29.50,ESE,109,0.0,0.0,46,0.00,,,0.00,Weather View 32 v70,2013-04-23 05:16:00,
2013-04-23 01:21:00,43.5,24.1,29.50,ESE,109,0.0,0.0,46,0.00,,,0.00,Weather View 32 v70,2013-04-23 05:21:00,
2013-04-23 01:26:00,43.3,24.4,29.50,ESE,109,0.0,0.0,47,0.00,,,0.00,Weather View 32 v70,2013-04-23 05:26:00,
2013-04-23 01:31:00,43.3,24.9,29.50,ESE,109,0.0,0.0,48,0.00,,,0.00,Weather View 32 v70,2013-04-23 05:31:00,
2013-04-23 01:36:00,43.2,24.3,29.50,ESE,109,0.0,0.0,47,0.00,,,0.00,Weather View 32 v70,2013-04-23 05:36:00,
2013-04-23 01:41:00,43.2,24.3,29.50,ESE,109,0.0,0.0,47,0.00,,,0.00,Weather View 32 v70,2013-04-23 05:41:00,
2013-04-23 01:46:00,43.2,24.8,29.50,ESE,109,0.0,0.0,48,0.00,,,0.00,Weather View 32 v70,2013-04-23 05:46:00,
2013-04-23 01:51:00,43.0,24.1,29.47,ESE,109,0.0,0.0,47,0.00,,,0.00,Weather View 32 v70,2013-04-23 05:51:00,
2013-04-23 01:56:00,43.0,24.1,29.47,ESE,107,0.0,0.0,47,0.00,,,0.00,Weather View 32 v70,2013-04-23 05:56:00,
2013-04-23 02:01:00,42.8,23.9,29.47,ESE,107,0.0,0.0,47,0.00,,,0.00,Weather View 32 v70,2013-04-23 06:01:00,
2013-04-23 02:06:00,42.8,24.4,29.47,ESE,107,0.0,0.0,48,0.00,,,0.00,Weather View 32 v70,2013-04-23 06:06:00,
2013-04-23 02:11:00,42.8,24.4,29.47,ESE,107,0.0,0.0,48,0.00,,,0.00,Weather View 32 v70,2013-04-23 06:11:00,
2013-04-23 02:16:00,42.8,23.9,29.47,ESE,107,0.0,0.0,47,0.00,,,0.00,Weather View 32 v70,2013-04-23 06:16:00,
2013-04-23 02:21:00,42.6,23.8,29.47,ESE,107,0.0,0.0,47,0.00,,,0.00,Weather View 32 v70,2013-04-23 06:21:00,
2013-04-23 02:26:00,42.4,23.6,29.47,ESE,107,0.0,0.0,47,0.00,,,0.00,Weather View 32 v70,2013-04-23 06:26:00,
2013-04-23 02:31:00,42.3,23.4,29.47,ESE,107,0.0,0.0,47,0.00,,,0.00,Weather View 32 v70,2013-04-23 06:31:00,
2013-04-23 02:36:00,42.1,23.3,29.47,ESE,107,0.0,0.0,47,0.00,,,0.00,Weather View 32 v70,2013-04-23 06:36:00,
2013-04-23 02:41:00,41.9,23.1,29.47,ESE,107,0.0,0.0,47,0.00,,,0.00,Weather View 32 v70,2013-04-23 06:41:00,
2013-04-23 02:46:00,41.7,23.4,29.47,ESE,107,0.0,0.0,48,0.00,,,0.00,Weather View 32 v70,2013-04-23 06:46:00,
2013-04-23 02:51:00,41.5,23.8,29.47,ESE,107,0.0,0.0,49,0.00,,,0.00,Weather View 32 v70,2013-04-23 06:51:00,
2013-04-23 02:56:00,41.5,23.8,29.47,ESE,107,0.0,0.0,49,0.00,,,0.00,Weather View 32 v70,2013-04-23 06:56:00,
2013-04-23 03:01:00,41.5,24.3,29.47,ESE,111,0.0,0.0,50,0.00,,,0.00,Weather View 32 v70,2013-04-23 07:01:00,
2013-04-23 03:06:00,41.5,24.3,29.47,ESE,111,0.0,0.0,50,0.00,,,0.00,Weather View 32 v70,2013-04-23 07:06:00,
2013-04-23 03:11:00,41.7,24.4,29.47,SE,131,0.0,0.0,50,0.00,,,0.00,Weather View 32 v70,2013-04-23 07:11:00,
2013-04-23 03:16:00,42.1,24.8,29.47,SE,139,0.0,2.0,50,0.00,,,0.00,Weather View 32 v70,2013-04-23 07:16:00,
2013-04-23 03:21:00,42.3,24.9,29.44,SSE,162,0.0,2.0,50,0.00,,,0.00,Weather View 32 v70,2013-04-23 07:21:00,
2013-04-23 03:26:00,42.4,24.6,29.44,SSE,158,0.0,2.0,49,0.00,,,0.00,Weather View 32 v70,2013-04-23 07:26:00,
2013-04-23 03:31:00,42.4,24.6,29.44,SSE,158,0.0,2.0,49,0.00,,,0.00,Weather View 32 v70,2013-04-23 07:31:00,
2013-04-23 03:36:00,42.4,24.6,29.44,SSE,158,0.0,2.0,49,0.00,,,0.00,Weather View 32 v70,2013-04-23 07:36:00,
2013-04-23 03:41:00,42.3,24.9,29.44,East,95,0.0,2.0,50,0.00,,,0.00,Weather View 32 v70,2013-04-23 07:41:00,
2013-04-23 03:46:00,42.1,25.2,29.44,SE,140,0.0,2.0,51,0.00,,,0.00,Weather View 32 v70,2013-04-23 07:46:00,
2013-04-23 03:51:00,42.3,25.4,29.44,SE,140,0.0,2.0,51,0.00,,,0.00,Weather View 32 v70,2013-04-23 07:51:00,
2013-04-23 03:56:00,42.4,25.6,29.44,SE,140,0.0,2.0,51,0.00,,,0.00,Weather View 32 v70,2013-04-23 07:56:00,
2013-04-23 04:01:00,42.6,25.7,29.44,SE,140,0.0,2.0,51,0.00,,,0.00,Weather View 32 v70,2013-04-23 08:01:00,
2013-04-23 04:06:00,42.6,25.3,29.44,SE,140,0.0,2.0,50,0.00,,,0.00,Weather View 32 v70,2013-04-23 08:06:00,
2013-04-23 04:11:00,42.6,25.3,29.44,SE,144,0.0,2.0,50,0.00,,,0.00,Weather View 32 v70,2013-04-23 08:11:00,
2013-04-23 04:16:00,42.4,25.1,29.44,SSE,157,0.0,0.0,50,0.00,,,0.00,Weather View 32 v70,2013-04-23 08:16:00,
2013-04-23 04:21:00,42.4,25.6,29.44,SSE,165,0.0,0.0,51,0.00,,,0.00,Weather View 32 v70,2013-04-23 08:21:00,
2013-04-23 04:26:00,42.4,25.6,29.44,South,175,0.0,0.0,51,0.00,,,0.00,Weather View 32 v70,2013-04-23 08:26:00,
2013-04-23 04:31:00,42.4,26.0,29.44,South,178,0.0,0.0,52,0.00,,,0.00,Weather View 32 v70,2013-04-23 08:31:00,
2013-04-23 04:36:00,42.6,25.7,29.44,SSW,200,0.0,0.0,51,0.00,,,0.00,Weather View 32 v70,2013-04-23 08:36:00,
2013-04-23 04:41:00,42.6,25.7,29.44,SSW,200,2.0,3.0,51,0.00,,,0.00,Weather View 32 v70,2013-04-23 08:41:00,
2013-04-23 04:46:00,42.6,26.2,29.44,SSW,200,0.0,3.0,52,0.00,,,0.00,Weather View 32 v70,2013-04-23 08:46:00,
2013-04-23 04:51:00,42.8,26.4,29.44,SSW,200,0.0,3.0,52,0.00,,,0.00,Weather View 32 v70,2013-04-23 08:51:00,
2013-04-23 04:56:00,43.0,26.5,29.44,SSW,199,2.0,3.0,52,0.00,,,0.00,Weather View 32 v70,2013-04-23 08:56:00,
2013-04-23 05:01:00,43.2,26.7,29.44,SSW,196,3.0,3.0,52,0.00,,,0.00,Weather View 32 v70,2013-04-23 09:01:00,
2013-04-23 05:06:00,43.2,26.2,29.41,SSW,196,2.0,3.0,51,0.00,,,0.00,Weather View 32 v70,2013-04-23 09:06:00,
2013-04-23 05:11:00,43.5,26.6,29.41,SSW,196,2.0,3.0,51,0.00,,,0.00,Weather View 32 v70,2013-04-23 09:11:00,
2013-04-23 05:16:00,43.9,26.4,29.41,SSW,195,3.0,3.0,50,0.00,,,0.00,Weather View 32 v70,2013-04-23 09:16:00,
2013-04-23 05:21:00,44.2,26.3,29.41,SSW,196,2.0,3.0,49,0.00,,,0.00,Weather View 32 v70,2013-04-23 09:21:00,
2013-04-23 05:26:00,45.0,26.4,29.41,SSW,193,3.0,5.0,48,0.00,,,0.00,Weather View 32 v70,2013-04-23 09:26:00,
2013-04-23 05:31:00,45.3,26.8,29.41,South,189,3.0,5.0,48,0.00,,,0.00,Weather View 32 v70,2013-04-23 09:31:00,
2013-04-23 05:36:00,45.5,26.4,29.41,South,190,2.0,5.0,47,0.00,,,0.00,Weather View 32 v70,2013-04-23 09:36:00,
2013-04-23 05:41:00,45.7,26.1,29.41,SSW,197,3.0,5.0,46,0.00,,,0.00,Weather View 32 v70,2013-04-23 09:41:00,
2013-04-23 05:46:00,46.0,26.4,29.41,SSW,198,4.0,5.0,46,0.00,,,0.00,Weather View 32 v70,2013-04-23 09:46:00,
2013-04-23 05:51:00,46.2,26.0,29.41,SSW,202,3.0,5.0,45,0.00,,,0.00,Weather View 32 v70,2013-04-23 09:51:00,
2013-04-23 05:56:00,46.4,25.6,29.41,SSW,192,0.0,6.0,44,0.00,,,0.00,Weather View 32 v70,2013-04-23 09:56:00,
2013-04-23 06:01:00,46.4,26.2,29.41,South,190,3.0,6.0,45,0.00,,,0.00,Weather View 32 v70,2013-04-23 10:01:00,
2013-04-23 06:06:00,46.2,26.5,29.38,SSW,192,3.0,6.0,46,0.00,,,0.00,Weather View 32 v70,2013-04-23 10:06:00,
2013-04-23 06:11:00,46.2,26.5,29.38,SSW,196,3.0,6.0,46,0.00,,,0.00,Weather View 32 v70,2013-04-23 10:11:00,
2013-04-23 06:16:00,46.2,26.5,29.38,SSW,200,3.0,6.0,46,0.00,,,0.00,Weather View 32 v70,2013-04-23 10:16:00,
2013-04-23 06:21:00,46.2,26.5,29.38,SSW,196,4.0,6.0,46,0.00,,,0.00,Weather View 32 v70,2013-04-23 10:21:00,
2013-04-23 06:26:00,46.2,27.1,29.38,SSW,212,3.0,6.0,47,0.00,,,0.00,Weather View 32 v70,2013-04-23 10:26:00,
2013-04-23 06:31:00,46.2,26.5,29.38,SSW,213,3.0,6.0,46,0.00,,,0.00,Weather View 32 v70,2013-04-23 10:31:00,
2013-04-23 06:36:00,46.4,26.7,29.38,SSW,198,0.0,6.0,46,0.00,,,0.00,Weather View 32 v70,2013-04-23 10:36:00,
2013-04-23 06:41:00,46.4,26.7,29.38,SSW,197,4.0,6.0,46,0.00,,,0.00,Weather View 32 v70,2013-04-23 10:41:00,
2013-04-23 06:46:00,46.4,26.7,29.38,SSW,192,3.0,6.0,46,0.00,,,0.00,Weather View 32 v70,2013-04-23 10:46:00,
2013-04-23 06:51:00,46.4,26.7,29.38,SSW,192,3.0,6.0,46,0.00,,,0.00,Weather View 32 v70,2013-04-23 10:51:00,
2013-04-23 06:56:00,46.8,27.0,29.38,SSW,200,0.0,6.0,46,0.00,,,0.00,Weather View 32 v70,2013-04-23 10:56:00,
2013-04-23 07:01:00,46.8,26.5,29.38,SSW,199,3.0,6.0,45,0.00,,,0.00,Weather View 32 v70,2013-04-23 11:01:00,
2013-04-23 07:06:00,46.9,26.7,29.38,SSW,204,2.0,6.0,45,0.00,,,0.00,Weather View 32 v70,2013-04-23 11:06:00,
2013-04-23 07:11:00,46.9,26.7,29.38,South,191,3.0,6.0,45,0.00,,,0.00,Weather View 32 v70,2013-04-23 11:11:00,
2013-04-23 07:16:00,47.1,26.3,29.38,SSW,192,3.0,6.0,44,0.00,,,0.00,Weather View 32 v70,2013-04-23 11:16:00,
2013-04-23 07:21:00,47.3,26.5,29.38,SW,216,3.0,6.0,44,0.00,,,0.00,Weather View 32 v70,2013-04-23 11:21:00,
2013-04-23 07:26:00,47.5,26.1,29.38,South,171,3.0,6.0,43,0.00,,,0.00,Weather View 32 v70,2013-04-23 11:26:00,
2013-04-23 07:31:00,47.5,26.1,29.38,South,191,3.0,6.0,43,0.00,,,0.00,Weather View 32 v70,2013-04-23 11:31:00,
2013-04-23 07:36:00,47.5,26.6,29.38,South,187,3.0,6.0,44,0.00,,,0.00,Weather View 32 v70,2013-04-23 11:36:00,
2013-04-23 07:41:00,47.3,25.9,29.38,South,188,4.0,5.0,43,0.00,,,0.00,Weather View 32 v70,2013-04-23 11:41:00,
2013-04-23 07:46:00,47.5,26.1,29.38,SSW,195,3.0,5.0,43,0.00,,,0.00,Weather View 32 v70,2013-04-23 11:46:00,
2013-04-23 07:51:00,47.5,26.6,29.38,South,177,3.0,6.0,44,0.00,,,0.00,Weather View 32 v70,2013-04-23 11:51:00,
2013-04-23 07:56:00,47.5,26.6,29.38,SSW,196,4.0,6.0,44,0.00,,,0.00,Weather View 32 v70,2013-04-23 11:56:00,
2013-04-23 08:01:00,47.7,26.2,29.38,South,184,2.0,6.0,43,0.00,,,0.00,Weather View 32 v70,2013-04-23 12:01:00,
2013-04-23 08:06:00,47.7,26.2,29.38,South,181,6.0,6.0,43,0.00,,,0.00,Weather View 32 v70,2013-04-23 12:06:00,
2013-04-23 08:11:00,47.8,26.4,29.38,SSE,167,3.0,6.0,43,0.00,,,0.00,Weather View 32 v70,2013-04-23 12:11:00,
2013-04-23 08:16:00,48.0,26.6,29.38,South,184,5.0,6.0,43,0.00,,,0.00,Weather View 32 v70,2013-04-23 12:16:00,
2013-04-23 08:21:00,48.2,26.7,29.35,South,190,4.0,6.0,43,0.00,,,0.00,Weather View 32 v70,2013-04-23 12:21:00,
2013-04-23 08:26:00,48.2,26.7,29.35,South,190,2.0,6.0,43,0.00,,,0.00,Weather View 32 v70,2013-04-23 12:26:00,
2013-04-23 08:31:00,48.6,26.5,29.35,SSW,192,3.0,6.0,42,0.00,,,0.00,Weather View 32 v70,2013-04-23 12:31:00,
2013-04-23 08:36:00,49.1,27.0,29.35,South,187,3.0,6.0,42,0.00,,,0.00,Weather View 32 v70,2013-04-23 12:36:00,
2013-04-23 08:41:00,49.5,26.1,29.35,SSW,197,3.0,6.0,40,0.00,,,0.00,Weather View 32 v70,2013-04-23 12:41:00,
2013-04-23 08:46:00,50.0,26.6,29.35,SSW,211,2.0,6.0,40,0.00,,,0.00,Weather View 32 v70,2013-04-23 12:46:00,
2013-04-23 08:51:00,50.5,27.7,29.35,SSW,198,4.0,6.0,41,0.00,,,0.00,Weather View 32 v70,2013-04-23 12:51:00,
2013-04-23 08:56:00,51.3,27.1,29.35,South,187,5.0,8.0,39,0.00,,,0.00,Weather View 32 v70,2013-04-23 12:56:00,
2013-04-23 09:01:00,52.2,28.5,29.35,South,189,5.0,9.0,40,0.00,,,0.00,Weather View 32 v70,2013-04-23 13:01:00,
2013-04-23 09:06:00,52.3,27.4,29.38,South,185,0.0,9.0,38,0.00,,,0.00,Weather View 32 v70,2013-04-23 13:06:00,
2013-04-23 09:11:00,52.3,27.4,29.38,SSW,205,3.0,9.0,38,0.00,,,0.00,Weather View 32 v70,2013-04-23 13:11:00,
2013-04-23 09:16:00,52.5,27.6,29.38,South,183,3.0,9.0,38,0.00,,,0.00,Weather View 32 v70,2013-04-23 13:16:00,
2013-04-23 09:21:00,52.9,27.9,29.38,South,190,6.0,10.0,38,0.00,,,0.00,Weather View 32 v70,2013-04-23 13:21:00,
2013-04-23 09:26:00,53.4,28.4,29.38,South,188,3.0,10.0,38,0.00,,,0.00,Weather View 32 v70,2013-04-23 13:26:00,
2013-04-23 09:31:00,54.1,28.4,29.38,South,185,3.0,10.0,37,0.00,,,0.00,Weather View 32 v70,2013-04-23 13:31:00,
2013-04-23 09:36:00,54.7,28.9,29.35,South,190,3.0,10.0,37,0.00,,,0.00,Weather View 32 v70,2013-04-23 13:36:00,
2013-04-23 09:41:00,55.0,29.2,29.35,ESE,115,3.0,10.0,37,0.00,,,0.00,Weather View 32 v70,2013-04-23 13:41:00,
2013-04-23 09:46:00,55.4,28.8,29.35,South,191,4.0,10.0,36,0.00,,,0.00,Weather View 32 v70,2013-04-23 13:46:00,
2013-04-23 09:51:00,55.9,29.3,29.35,South,183,3.0,10.0,36,0.00,,,0.00,Weather View 32 v70,2013-04-23 13:51:00,
2013-04-23 09:56:00,56.3,29.6,29.35,SSW,196,6.0,10.0,36,0.00,,,0.00,Weather View 32 v70,2013-04-23 13:56:00,
2013-04-23 10:01:00,56.8,29.4,29.35,SSW,198,4.0,10.0,35,0.00,,,0.00,Weather View 32 v70,2013-04-23 14:01:00,
2013-04-23 10:06:00,57.2,29.7,29.35,SSW,192,4.0,10.0,35,0.00,,,0.00,Weather View 32 v70,2013-04-23 14:06:00,
2013-04-23 10:11:00,57.9,30.4,29.35,SSW,198,3.0,10.0,35,0.00,,,0.00,Weather View 32 v70,2013-04-23 14:11:00,
2013-04-23 10:16:00,58.6,30.3,29.35,SSW,194,4.0,10.0,34,0.00,,,0.00,Weather View 32 v70,2013-04-23 14:16:00,
2013-04-23 10:21:00,59.2,30.8,29.35,South,188,4.0,8.0,34,0.00,,,0.00,Weather View 32 v70,2013-04-23 14:21:00,
2013-04-23 10:26:00,59.7,31.2,29.35,SE,131,3.0,8.0,34,0.00,,,0.00,Weather View 32 v70,2013-04-23 14:26:00,
2013-04-23 10:31:00,60.3,31.0,29.35,SSW,201,3.0,8.0,33,0.00,,,0.00,Weather View 32 v70,2013-04-23 14:31:00,
2013-04-23 10:36:00,60.8,30.7,29.35,South,178,6.0,8.0,32,0.00,,,0.00,Weather View 32 v70,2013-04-23 14:36:00,
2013-04-23 10:41:00,61.2,30.2,29.35,South,177,4.0,8.0,31,0.00,,,0.00,Weather View 32 v70,2013-04-23 14:41:00,
2013-04-23 10:46:00,61.7,29.1,29.35,South,180,6.0,8.0,29,0.00,,,0.00,Weather View 32 v70,2013-04-23 14:46:00,
2013-04-23 10:51:00,62.1,30.2,29.35,South,187,8.0,8.0,30,0.00,,,0.00,Weather View 32 v70,2013-04-23 14:51:00,
2013-04-23 10:56:00,62.6,31.5,29.35,SSW,198,4.0,8.0,31,0.00,,,0.00,Weather View 32 v70,2013-04-23 14:56:00,
2013-04-23 11:01:00,62.6,29.0,29.35,SSW,197,4.0,8.0,28,0.00,,,0.00,Weather View 32 v70,2013-04-23 15:01:00,
2013-04-23 11:06:00,63.0,30.1,29.35,South,187,6.0,9.0,29,0.00,,,0.00,Weather View 32 v70,2013-04-23 15:06:00,
2013-04-23 11:11:00,63.0,30.1,29.35,SSW,200,3.0,9.0,29,0.00,,,0.00,Weather View 32 v70,2013-04-23 15:11:00,
2013-04-23 11:16:00,63.5,31.4,29.35,South,172,5.0,9.0,30,0.00,,,0.00,Weather View 32 v70,2013-04-23 15:16:00,
2013-04-23 11:21:00,64.4,29.6,29.32,SSW,199,4.0,9.0,27,0.00,,,0.00,Weather View 32 v70,2013-04-23 15:21:00,
2013-04-23 11:26:00,64.8,29.9,29.32,South,179,3.0,9.0,27,0.00,,,0.00,Weather View 32 v70,2013-04-23 15:26:00,
2013-04-23 11:31:00,64.4,28.7,29.32,SSW,195,3.0,9.0,26,0.00,,,0.00,Weather View 32 v70,2013-04-23 15:31:00,
2013-04-23 11:36:00,63.9,29.2,29.35,South,191,6.0,9.0,27,0.00,,,0.00,Weather View 32 v70,2013-04-23 15:36:00,
2013-04-23 11:41:00,63.5,28.8,29.35,SSW,195,4.0,9.0,27,0.00,,,0.00,Weather View 32 v70,2013-04-23 15:41:00,
2013-04-23 11:46:00,63.1,31.9,29.35,SW,220,6.0,11.0,31,0.00,,,0.00,Weather View 32 v70,2013-04-23 15:46:00,
2013-04-23 11:51:00,62.8,29.1,29.35,SW,218,6.0,11.0,28,0.00,,,0.00,Weather View 32 v70,2013-04-23 15:51:00,
2013-04-23 11:56:00,62.8,31.6,29.35,South,173,3.0,11.0,31,0.00,,,0.00,Weather View 32 v70,2013-04-23 15:56:00,
2013-04-23 12:01:00,62.8,30.0,29.35,SSW,194,6.0,11.0,29,0.00,,,0.00,Weather View 32 v70,2013-04-23 16:01:00,
2013-04-23 12:06:00,63.0,30.1,29.32,SSW,194,3.0,11.0,29,0.00,,,0.00,Weather View 32 v70,2013-04-23 16:06:00,
2013-04-23 12:11:00,63.1,30.3,29.32,SSW,197,6.0,11.0,29,0.00,,,0.00,Weather View 32 v70,2013-04-23 16:11:00,
2013-04-23 12:16:00,63.3,31.3,29.32,SW,218,6.0,11.0,30,0.00,,,0.00,Weather View 32 v70,2013-04-23 16:16:00,
2013-04-23 12:21:00,63.3,30.4,29.32,SW,219,6.0,11.0,29,0.00,,,0.00,Weather View 32 v70,2013-04-23 16:21:00,
2013-04-23 12:26:00,63.0,31.0,29.32,SSW,208,5.0,11.0,30,0.00,,,0.00,Weather View 32 v70,2013-04-23 16:26:00,
2013-04-23 12:31:00,63.0,31.0,29.32,SSW,203,6.0,11.0,30,0.00,,,0.00,Weather View 32 v70,2013-04-23 16:31:00,
2013-04-23 12:36:00,63.1,31.9,29.29,SSW,194,5.0,11.0,31,0.00,,,0.00,Weather View 32 v70,2013-04-23 16:36:00,
2013-04-23 12:41:00,63.3,29.6,29.29,South,188,6.0,11.0,28,0.00,,,0.00,Weather View 32 v70,2013-04-23 16:41:00,
2013-04-23 12:46:00,63.3,29.6,29.29,SW,214,6.0,11.0,28,0.00,,,0.00,Weather View 32 v70,2013-04-23 16:46:00,
2013-04-23 12:51:00,63.3,31.3,29.32,South,180,5.0,11.0,30,0.00,,,0.00,Weather View 32 v70,2013-04-23 16:51:00,
2013-04-23 12:56:00,63.1,30.3,29.32,SSW,205,4.0,11.0,29,0.00,,,0.00,Weather View 32 v70,2013-04-23 16:56:00,
2013-04-23 13:01:00,63.3,30.4,29.32,SSW,195,4.0,11.0,29,0.00,,,0.00,Weather View 32 v70,2013-04-23 17:01:00,
2013-04-23 13:06:00,63.5,30.6,29.32,South,189,5.0,11.0,29,0.00,,,0.00,Weather View 32 v70,2013-04-23 17:06:00,
2013-04-23 13:11:00,63.9,30.9,29.32,South,180,7.0,11.0,29,0.00,,,0.00,Weather View 32 v70,2013-04-23 17:11:00,
2013-04-23 13:16:00,63.7,30.8,29.32,SW,221,8.0,11.0,29,0.00,,,0.00,Weather View 32 v70,2013-04-23 17:16:00,
2013-04-23 13:21:00,63.7,30.8,29.29,SSW,199,6.0,10.0,29,0.00,,,0.00,Weather View 32 v70,2013-04-23 17:21:00,
2013-04-23 13:26:00,63.9,30.9,29.29,SW,220,6.0,10.0,29,0.00,,,0.00,Weather View 32 v70,2013-04-23 17:26:00,
2013-04-23 13:31:00,63.9,31.8,29.29,SSW,194,4.0,10.0,30,0.00,,,0.00,Weather View 32 v70,2013-04-23 17:31:00,
2013-04-23 13:36:00,64.0,31.9,29.29,SSW,195,4.0,10.0,30,0.00,,,0.00,Weather View 32 v70,2013-04-23 17:36:00,
2013-04-23 13:41:00,64.0,30.2,29.29,SSW,193,8.0,11.0,28,0.00,,,0.00,Weather View 32 v70,2013-04-23 17:41:00,
2013-04-23 13:46:00,63.9,31.8,29.29,South,191,4.0,11.0,30,0.00,,,0.00,Weather View 32 v70,2013-04-23 17:46:00,
2013-04-23 13:51:00,63.9,30.9,29.29,SSW,193,6.0,11.0,29,0.00,,,0.00,Weather View 32 v70,2013-04-23 17:51:00,
2013-04-23 13:56:00,63.9,30.0,29.29,South,189,6.0,11.0,28,0.00,,,0.00,Weather View 32 v70,2013-04-23 17:56:00,
2013-04-23 14:01:00,64.2,30.4,29.29,SSW,199,8.0,11.0,28,0.00,,,0.00,Weather View 32 v70,2013-04-23 18:01:00,
2013-04-23 14:06:00,64.2,31.2,29.26,SW,219,6.0,11.0,29,0.00,,,0.00,Weather View 32 v70,2013-04-23 18:06:00,
2013-04-23 14:11:00,64.6,30.7,29.26,SSW,201,7.0,11.0,28,0.00,,,0.00,Weather View 32 v70,2013-04-23 18:11:00,
2013-04-23 14:16:00,64.8,30.8,29.26,SSW,197,8.0,11.0,28,0.00,,,0.00,Weather View 32 v70,2013-04-23 18:16:00,
2013-04-23 14:21:00,64.9,32.7,29.26,SSW,206,3.0,11.0,30,0.00,,,0.00,Weather View 32 v70,2013-04-23 18:21:00,
2013-04-23 14:26:00,65.1,31.1,29.26,SSW,193,3.0,11.0,28,0.00,,,0.00,Weather View 32 v70,2013-04-23 18:26:00,
2013-04-23 14:31:00,65.5,30.5,29.26,SSW,198,3.0,11.0,27,0.00,,,0.00,Weather View 32 v70,2013-04-23 18:31:00,
2013-04-23 14:36:00,65.8,30.8,29.26,SSW,192,4.0,11.0,27,0.00,,,0.00,Weather View 32 v70,2013-04-23 18:36:00,
2013-04-23 14:41:00,65.8,30.8,29.26,SSW,205,8.0,11.0,27,0.00,,,0.00,Weather View 32 v70,2013-04-23 18:41:00,
2013-04-23 14:46:00,65.5,30.5,29.26,South,189,8.0,11.0,27,0.00,,,0.00,Weather View 32 v70,2013-04-23 18:46:00,
2013-04-23 14:51:00,65.1,31.1,29.26,SSW,202,3.0,11.0,28,0.00,,,0.00,Weather View 32 v70,2013-04-23 18:51:00,
2013-04-23 14:56:00,65.5,31.4,29.26,SSW,199,4.0,11.0,28,0.00,,,0.00,Weather View 32 v70,2013-04-23 18:56:00,
2013-04-23 15:01:00,66.6,31.5,29.26,SSW,204,6.0,11.0,27,0.00,,,0.00,Weather View 32 v70,2013-04-23 19:01:00,
2013-04-23 15:06:00,66.7,31.6,29.23,SSW,197,4.0,11.0,27,0.00,,,0.00,Weather View 32 v70,2013-04-23 19:06:00,
2013-04-23 15:11:00,65.8,29.9,29.23,SSW,193,5.0,9.0,26,0.00,,,0.00,Weather View 32 v70,2013-04-23 19:11:00,
2013-04-23 15:16:00,65.3,30.4,29.23,SSW,199,3.0,9.0,27,0.00,,,0.00,Weather View 32 v70,2013-04-23 19:16:00,
2013-04-23 15:21:00,64.9,31.0,29.23,SSW,204,4.0,9.0,28,0.00,,,0.00,Weather View 32 v70,2013-04-23 19:21:00,
2013-04-23 15:26:00,64.8,30.8,29.23,SSW,195,6.0,9.0,28,0.00,,,0.00,Weather View 32 v70,2013-04-23 19:26:00,
2013-04-23 15:31:00,64.8,31.7,29.23,SSW,192,6.0,9.0,29,0.00,,,0.00,Weather View 32 v70,2013-04-23 19:31:00,
2013-04-23 15:36:00,64.9,31.0,29.23,SSW,194,5.0,9.0,28,0.00,,,0.00,Weather View 32 v70,2013-04-23 19:36:00,
2013-04-23 15:41:00,64.8,31.7,29.23,South,188,4.0,9.0,29,0.00,,,0.00,Weather View 32 v70,2013-04-23 19:41:00,
2013-04-23 15:46:00,64.8,32.5,29.23,SW,219,5.0,9.0,30,0.00,,,0.00,Weather View 32 v70,2013-04-23 19:46:00,
2013-04-23 15:51:00,64.9,31.8,29.23,SSW,211,8.0,9.0,29,0.00,,,0.00,Weather View 32 v70,2013-04-23 19:51:00,
2013-04-23 15:56:00,65.1,32.8,29.23,SSW,194,5.0,9.0,30,0.00,,,0.00,Weather View 32 v70,2013-04-23 19:56:00,
2013-04-23 16:01:00,65.3,32.2,29.23,South,189,6.0,9.0,29,0.00,,,0.00,Weather View 32 v70,2013-04-23 20:01:00,
2013-04-23 16:06:00,65.3,32.2,29.21,South,186,5.0,9.0,29,0.00,,,0.00,Weather View 32 v70,2013-04-23 20:06:00,
2013-04-23 16:11:00,65.5,32.3,29.21,South,179,5.0,9.0,29,0.00,,,0.00,Weather View 32 v70,2013-04-23 20:11:00,
2013-04-23 16:16:00,65.3,32.2,29.21,South,189,6.0,9.0,29,0.00,,,0.00,Weather View 32 v70,2013-04-23 20:16:00,
2013-04-23 16:21:00,65.5,32.3,29.21,SSW,192,5.0,9.0,29,0.00,,,0.00,Weather View 32 v70,2013-04-23 20:21:00,
2013-04-23 16:26:00,65.7,33.3,29.21,SSW,204,4.0,9.0,30,0.00,,,0.00,Weather View 32 v70,2013-04-23 20:26:00,
2013-04-23 16:31:00,65.7,32.5,29.21,SSW,213,4.0,9.0,29,0.00,,,0.00,Weather View 32 v70,2013-04-23 20:31:00,
2013-04-23 16:36:00,65.8,34.3,29.21,South,184,5.0,9.0,31,0.00,,,0.00,Weather View 32 v70,2013-04-23 20:36:00,
2013-04-23 16:41:00,66.0,33.6,29.21,South,189,6.0,9.0,30,0.00,,,0.00,Weather View 32 v70,2013-04-23 20:41:00,
2013-04-23 16:46:00,66.2,32.9,29.21,SSW,207,6.0,12.0,29,0.00,,,0.00,Weather View 32 v70,2013-04-23 20:46:00,
2013-04-23 16:51:00,66.2,32.9,29.21,WSW,238,5.0,12.0,29,0.00,,,0.00,Weather View 32 v70,2013-04-23 20:51:00,
2013-04-23 16:56:00,66.2,32.9,29.21,SW,236,5.0,12.0,29,0.00,,,0.00,Weather View 32 v70,2013-04-23 20:56:00,
2013-04-23 17:01:00,66.2,33.8,29.21,SSW,210,4.0,12.0,30,0.00,,,0.00,Weather View 32 v70,2013-04-23 21:01:00,
2013-04-23 17:06:00,66.0,32.8,29.18,South,180,6.0,13.0,29,0.00,,,0.00,Weather View 32 v70,2013-04-23 21:06:00,
2013-04-23 17:11:00,66.2,33.8,29.18,SSW,209,5.0,13.0,30,0.00,,,0.00,Weather View 32 v70,2013-04-23 21:11:00,
2013-04-23 17:16:00,66.0,32.8,29.18,South,184,6.0,13.0,29,0.00,,,0.00,Weather View 32 v70,2013-04-23 21:16:00,
2013-04-23 17:21:00,65.8,32.6,29.18,SSW,204,6.0,13.0,29,0.00,,,0.00,Weather View 32 v70,2013-04-23 21:21:00,
2013-04-23 17:26:00,65.8,33.5,29.18,SW,216,7.0,13.0,30,0.00,,,0.00,Weather View 32 v70,2013-04-23 21:26:00,
2013-04-23 17:31:00,65.3,34.6,29.18,SSW,202,9.0,13.0,32,0.00,,,0.00,Weather View 32 v70,2013-04-23 21:31:00,
2013-04-23 17:36:00,63.0,35.5,29.21,SSW,201,9.0,13.0,36,0.00,,,0.00,Weather View 32 v70,2013-04-23 21:36:00,
2013-04-23 17:41:00,62.2,35.6,29.21,South,190,6.0,13.0,37,0.00,,,0.00,Weather View 32 v70,2013-04-23 21:41:00,
2013-04-23 17:46:00,62.2,36.3,29.21,SSW,193,6.0,13.0,38,0.00,,,0.00,Weather View 32 v70,2013-04-23 21:46:00,
2013-04-23 17:51:00,61.5,38.2,29.21,SW,221,10.0,13.0,42,0.00,,,0.00,Weather View 32 v70,2013-04-23 21:51:00,
2013-04-23 17:56:00,59.7,41.0,29.21,SSW,212,8.0,13.0,50,0.00,,,0.00,Weather View 32 v70,2013-04-23 21:56:00,
2013-04-23 18:01:00,58.6,43.4,29.21,WSW,249,5.0,13.0,57,0.00,,,0.00,Weather View 32 v70,2013-04-23 22:01:00,
2013-04-23 18:06:00,58.3,43.5,29.21,SW,217,4.0,13.0,58,0.00,,,0.00,Weather View 32 v70,2013-04-23 22:06:00,
2013-04-23 18:11:00,58.1,43.8,29.21,SW,222,4.0,13.0,59,0.00,,,0.00,Weather View 32 v70,2013-04-23 22:11:00,
2013-04-23 18:16:00,57.9,44.5,29.21,SW,217,6.0,13.0,61,0.00,,,0.00,Weather View 32 v70,2013-04-23 22:16:00,
2013-04-23 18:21:00,57.6,46.7,29.21,SSW,208,5.0,13.0,67,0.00,,,0.00,Weather View 32 v70,2013-04-23 22:21:00,
2013-04-23 18:26:00,57.0,46.9,29.21,SSW,206,5.0,13.0,69,0.00,,,0.00,Weather View 32 v70,2013-04-23 22:26:00,
2013-04-23 18:31:00,56.7,47.3,29.21,SSW,192,8.0,13.0,71,0.00,,,0.00,Weather View 32 v70,2013-04-23 22:31:00,
2013-04-23 18:36:00,56.7,47.7,29.21,SW,223,4.0,13.0,72,0.00,,,0.00,Weather View 32 v70,2013-04-23 22:36:00,
2013-04-23 18:41:00,56.5,48.3,29.21,WSW,255,5.0,11.0,74,0.00,,,0.00,Weather View 32 v70,2013-04-23 22:41:00,
2013-04-23 18:46:00,56.3,48.8,29.21,SSW,203,6.0,11.0,76,0.04,,,0.04,Weather View 32 v70,2013-04-23 22:46:00,
2013-04-23 18:51:00,56.1,49.3,29.21,SSW,206,4.0,11.0,78,0.04,,,0.04,Weather View 32 v70,2013-04-23 22:51:00,
2013-04-23 18:56:00,56.1,49.7,29.21,SSW,206,3.0,9.0,79,0.04,,,0.04,Weather View 32 v70,2013-04-23 22:56:00,
2013-04-23 19:01:00,55.9,49.8,29.21,South,187,5.0,9.0,80,0.04,,,0.04,Weather View 32 v70,2013-04-23 23:01:00,
2013-04-23 19:06:00,55.9,49.8,29.21,South,191,6.0,9.0,80,0.04,,,0.04,Weather View 32 v70,2013-04-23 23:06:00,
2013-04-23 19:11:00,55.9,50.2,29.21,SW,226,4.0,9.0,81,0.04,,,0.04,Weather View 32 v70,2013-04-23 23:11:00,
2013-04-23 19:16:00,55.9,50.5,29.21,SSW,196,4.0,9.0,82,0.04,,,0.04,Weather View 32 v70,2013-04-23 23:16:00,
2013-04-23 19:21:00,55.9,50.5,29.18,SW,224,4.0,9.0,82,0.04,,,0.04,Weather View 32 v70,2013-04-23 23:21:00,
2013-04-23 19:26:00,55.8,50.7,29.18,SSW,202,2.0,9.0,83,0.04,,,0.04,Weather View 32 v70,2013-04-23 23:26:00,
2013-04-23 19:31:00,55.8,51.0,29.18,SSW,201,2.0,9.0,84,0.04,,,0.04,Weather View 32 v70,2013-04-23 23:31:00,
2013-04-23 19:36:00,55.8,51.0,29.18,SSW,200,3.0,8.0,84,0.04,,,0.04,Weather View 32 v70,2013-04-23 23:36:00,
2013-04-23 19:41:00,55.8,51.0,29.18,South,191,3.0,7.0,84,0.04,,,0.04,Weather View 32 v70,2013-04-23 23:41:00,
2013-04-23 19:46:00,55.6,51.1,29.18,SSW,194,4.0,7.0,85,0.00,,,0.04,Weather View 32 v70,2013-04-23 23:46:00,
2013-04-23 19:51:00,55.6,51.1,29.18,SSW,194,4.0,7.0,85,0.00,,,0.04,Weather View 32 v70,2013-04-23 23:51:00,
2013-04-23 19:56:00,55.6,51.1,29.18,South,188,4.0,7.0,85,0.00,,,0.04,Weather View 32 v70,2013-04-23 23:56:00,
2013-04-23 20:01:00,55.6,51.1,29.18,South,191,3.0,6.0,85,0.00,,,0.04,Weather View 32 v70,2013-04-24 00:01:00,
2013-04-23 20:06:00,55.6,51.1,29.18,SSW,200,4.0,6.0,85,0.00,,,0.04,Weather View 32 v70,2013-04-24 00:06:00,
2013-04-23 20:11:00,55.6,51.1,29.18,SSW,193,3.0,6.0,85,0.00,,,0.04,Weather View 32 v70,2013-04-24 00:11:00,
2013-04-23 20:16:00,55.4,51.0,29.18,South,191,4.0,5.0,85,0.00,,,0.04,Weather View 32 v70,2013-04-24 00:16:00,
2013-04-23 20:21:00,55.4,51.0,29.18,SSW,193,3.0,5.0,85,0.00,,,0.04,Weather View 32 v70,2013-04-24 00:21:00,
2013-04-23 20:26:00,55.4,51.0,29.18,South,189,2.0,5.0,85,0.00,,,0.04,Weather View 32 v70,2013-04-24 00:26:00,
2013-04-23 20:31:00,55.4,51.3,29.18,SSW,194,3.0,5.0,86,0.00,,,0.04,Weather View 32 v70,2013-04-24 00:31:00,
2013-04-23 20:36:00,55.4,51.3,29.18,SSW,196,2.0,5.0,86,0.04,,,0.08,Weather View 32 v70,2013-04-24 00:36:00,
2013-04-23 20:41:00,55.2,51.1,29.18,South,170,2.0,5.0,86,0.04,,,0.08,Weather View 32 v70,2013-04-24 00:41:00,
2013-04-23 20:46:00,55.2,51.4,29.18,SSW,194,0.0,5.0,87,0.04,,,0.08,Weather View 32 v70,2013-04-24 00:46:00,
2013-04-23 20:51:00,55.2,51.4,29.18,South,190,3.0,5.0,87,0.04,,,0.08,Weather View 32 v70,2013-04-24 00:51:00,
2013-04-23 20:56:00,55.4,51.6,29.18,SSE,155,2.0,6.0,87,0.04,,,0.08,Weather View 32 v70,2013-04-24 00:56:00,
2013-04-23 21:01:00,55.4,51.3,29.18,SSW,204,4.0,6.0,86,0.04,,,0.08,Weather View 32 v70,2013-04-24 01:01:00,
2013-04-23 21:06:00,55.4,51.3,29.18,South,190,4.0,6.0,86,0.04,,,0.08,Weather View 32 v70,2013-04-24 01:06:00,
2013-04-23 21:11:00,55.4,51.3,29.18,South,191,4.0,6.0,86,0.04,,,0.08,Weather View 32 v70,2013-04-24 01:11:00,
2013-04-23 21:16:00,55.4,51.3,29.18,SSW,193,3.0,6.0,86,0.04,,,0.08,Weather View 32 v70,2013-04-24 01:16:00,
2013-04-23 21:21:00,55.4,51.3,29.18,SW,214,4.0,6.0,86,0.04,,,0.08,Weather View 32 v70,2013-04-24 01:21:00,
2013-04-23 21:26:00,55.4,51.0,29.18,South,189,3.0,7.0,85,0.04,,,0.08,Weather View 32 v70,2013-04-24 01:26:00,
2013-04-23 21:31:00,55.4,51.0,29.18,SSW,194,5.0,7.0,85,0.04,,,0.08,Weather View 32 v70,2013-04-24 01:31:00,
2013-04-23 21:36:00,55.4,50.6,29.15,SW,217,3.0,7.0,84,0.00,,,0.08,Weather View 32 v70,2013-04-24 01:36:00,
2013-04-23 21:41:00,55.4,50.6,29.15,South,186,4.0,7.0,84,0.00,,,0.08,Weather View 32 v70,2013-04-24 01:41:00,
2013-04-23 21:46:00,55.4,50.3,29.15,South,190,6.0,7.0,83,0.00,,,0.08,Weather View 32 v70,2013-04-24 01:46:00,
2013-04-23 21:51:00,55.4,50.0,29.18,SSW,195,4.0,7.0,82,0.00,,,0.08,Weather View 32 v70,2013-04-24 01:51:00,
2013-04-23 21:56:00,55.4,49.7,29.18,SSW,212,3.0,8.0,81,0.00,,,0.08,Weather View 32 v70,2013-04-24 01:56:00,
2013-04-23 22:01:00,55.4,49.7,29.18,South,189,4.0,8.0,81,0.00,,,0.08,Weather View 32 v70,2013-04-24 02:01:00,
2013-04-23 22:06:00,55.4,50.0,29.18,SW,236,6.0,8.0,82,0.00,,,0.08,Weather View 32 v70,2013-04-24 02:06:00,
2013-04-23 22:11:00,55.2,49.8,29.18,South,190,4.0,8.0,82,0.00,,,0.08,Weather View 32 v70,2013-04-24 02:11:00,
2013-04-23 22:16:00,55.2,50.1,29.18,SW,217,4.0,8.0,83,0.00,,,0.08,Weather View 32 v70,2013-04-24 02:16:00,
2013-04-23 22:22:00,55.0,50.0,29.18,SSW,204,5.0,8.0,83,0.04,,,0.12,Weather View 32 v70,2013-04-24 02:22:00,
2013-04-23 22:27:00,55.0,50.3,29.18,SSW,193,3.0,8.0,84,0.04,,,0.12,Weather View 32 v70,2013-04-24 02:27:00,
2013-04-23 22:32:00,54.5,49.4,29.18,NNW,327,3.0,8.0,83,0.04,,,0.12,Weather View 32 v70,2013-04-24 02:32:00,
2013-04-23 22:37:00,54.1,49.4,29.18,NW,321,0.0,8.0,84,0.04,,,0.12,Weather View 32 v70,2013-04-24 02:37:00,
2013-04-23 22:43:00,53.8,49.0,29.18,NNW,332,2.0,8.0,84,0.12,,,0.20,Weather View 32 v70,2013-04-24 02:43:00,
2013-04-23 22:48:00,53.2,48.2,29.18,NNW,345,8.0,11.0,83,0.12,,,0.20,Weather View 32 v70,2013-04-24 02:48:00,
2013-04-23 22:54:00,51.6,45.0,29.18,NW,308,4.0,11.0,78,0.12,,,0.20,Weather View 32 v70,2013-04-24 02:54:00,
2013-04-23 22:59:00,50.7,44.1,29.18,NNW,341,5.0,11.0,78,0.12,,,0.20,Weather View 32 v70,2013-04-24 02:59:00,
2013-04-23 23:04:00,50.0,43.4,29.18,North,353,4.0,11.0,78,0.16,,,0.24,Weather View 32 v70,2013-04-24 03:04:00,
2013-04-23 23:09:00,49.6,43.4,29.18,North,357,5.0,11.0,79,0.16,,,0.24,Weather View 32 v70,2013-04-24 03:09:00,
2013-04-23 23:14:00,49.3,43.7,29.18,NNW,342,6.0,11.0,81,0.16,,,0.24,Weather View 32 v70,2013-04-24 03:14:00,
2013-04-23 23:19:00,49.3,44.0,29.18,NNW,342,4.0,11.0,82,0.12,,,0.24,Weather View 32 v70,2013-04-24 03:19:00,
2013-04-23 23:25:00,48.9,44.0,29.18,NNW,335,6.0,11.0,83,0.12,,,0.24,Weather View 32 v70,2013-04-24 03:25:00,
2013-04-23 23:30:00,48.7,43.8,29.18,NNW,343,4.0,11.0,83,0.12,,,0.24,Weather View 32 v70,2013-04-24 03:30:00,
2013-04-23 23:35:00,48.6,43.6,29.18,NNW,331,6.0,11.0,83,0.12,,,0.24,Weather View 32 v70,2013-04-24 03:35:00,
2013-04-23 23:40:00,48.6,43.9,29.18,North,349,8.0,11.0,84,0.04,,,0.24,Weather View 32 v70,2013-04-24 03:40:00,
2013-04-23 23:46:00,48.6,43.9,29.18,NNW,346,4.0,11.0,84,0.08,,,0.28,Weather View 32 v70,2013-04-24 03:46:00,
2013-04-23 23:51:00,48.4,43.8,29.18,North,349,5.0,10.0,84,0.08,,,0.28,Weather View 32 v70,2013-04-24 03:51:00,
2013-04-23 23:56:00,48.2,43.3,29.18,NNW,348,6.0,10.0,83,0.08,,,0.28,Weather View 32 v70,2013-04-24 03:56:00,